Skip Page Navigation
NASA JPL Caltech
NASA Logo - Jet Propulsion Laboratory + View the NASA Portal
+ Center for Near-Earth Object Studies
JPL Home Earth Solar System Stars & Galaxies Technology
JPL Solar System Dynamics
BODIES ORBITS EPHEMERIDES TOOLS PHYSICAL DATA DISCOVERY FAQ SITE MAP
JPL Small-Body Database Browser
Search: [ help ]  
136118 (2003 KV)
Classification: Main-belt Asteroid          SPK-ID: 2136118
Ephemeris | Orbit Diagram | Orbital Elements | Mission Design | Physical Parameters | Discovery Circumstances ]

[ show orbit diagram ]
Orbital Elements at Epoch 2459000.5 (2020-May-31.0) TDB
Reference: JPL 20 (heliocentric ecliptic J2000)
 Element Value Uncertainty (1-sigma)   Units 
e .1145871264325523 3.7222e-08  
a 2.232781363854587 9.8767e-09 au
q 1.976933363418335 8.2661e-08 au
i 3.207047030872149 4.7595e-06 deg
node 312.0836815604483 7.541e-05 deg
peri 267.4544247747701 7.8608e-05 deg
M 54.65938781342378 2.2593e-05 deg
tp 2458815.475181315678
(2019-Nov-27.97518132)
7.6122e-05 TDB
period 1218.618381781388
3.34
8.0858e-06
2.214e-08
d
yr
n .2954165187248765 1.9602e-09 deg/d
Q 2.488629364290838 1.1008e-08 au
  Orbit Determination Parameters
   # obs. used (total)      577  
   data-arc span      9397 days (25.73 yr)  
   first obs. used      1994-11-06  
   last obs. used      2020-07-29  
   planetary ephem.      DE431  
   SB-pert. ephem.      SB431-N16  
   condition code      0  
   norm. resid. RMS      .57679  
   source      ORB  
   producer      Otto Matic  
   solution date      2020-Aug-25 11:01:34  

Additional Information
 Earth MOID = .972145 au 
 Jupiter MOID = 2.49459 au 
 T_jup = 3.630 
[ show covariance matrix ]

Ephemeris | Orbit Diagram | Orbital Elements | Mission Design | Physical Parameters | Discovery Circumstances ]

Physical Parameter Table
Parameter Symbol Value Units Sigma Reference Notes
absolute magnitude H 16.3   n/a MPO366740  
diameter diameter 2.911 km 0.048 urn:nasa:pds:neowise_diameters_albedos::2.0[mainbelt] (http://adsabs.harvard.edu/abs/2011ApJ...741...68M)  
geometric albedo albedo 0.077   0.008 urn:nasa:pds:neowise_diameters_albedos::2.0[mainbelt] (http://adsabs.harvard.edu/abs/2011ApJ...741...68M)  

136118 (2003 KV)          Discovered 2003-May-21 by Broughton, J. at Reedy Creek
Reference: 20060907/Numbers.arcLast Updated: 2006-09-10

Alternate Designations
 2003 KV = 2001 XZ226 
Ephemeris | Orbit Diagram | Orbital Elements | Mission Design | Physical Parameters | Discovery Circumstances ]
ABOUT SSD CREDITS/AWARDS PRIVACY/COPYRIGHT GLOSSARY LINKS
FirstGov 2020-Oct-27 13:11 UT
(server date/time)  
NASA Home Page
Site Manager:   Ryan S. Park
Webmaster  Alan B. Chamberlin